CGATX CYZR-CYXU

Flight info

Callsign CGATX
Flight time 0h 15m
Altitude 11000
Route DCT
Aircraft E55P/M-BDGRSWXY/LB2

Departure

Time 2026-04-25 01:31
Airport Chris Hadfield Airport (CYZR)

Arrival

Time 2026-04-25 01:46
Airport London International Airport (CYXU)
Time Latitude Longitude Altitude Speed Heading
2026-04-25 01:21 42.99692 -82.30922 595 ft 0 kts
2026-04-25 01:25 42.99693 -82.30922 595 ft 0 kts
2026-04-25 01:25 42.99699 -82.30921 595 ft 1 kts
2026-04-25 01:25 42.99707 -82.30925 595 ft 1 kts 319°
2026-04-25 01:26 42.99716 -82.30937 595 ft 2 kts 315°
2026-04-25 01:26 42.99728 -82.30954 595 ft 2 kts 316°
2026-04-25 01:26 42.99741 -82.30970 595 ft 2 kts 317°
2026-04-25 01:26 42.99757 -82.30991 595 ft 4 kts 317°
2026-04-25 01:27 42.99785 -82.31026 595 ft 6 kts 317°
2026-04-25 01:27 42.99826 -82.31077 595 ft 8 kts 326°
2026-04-25 01:27 42.99869 -82.31046 594 ft 8 kts 49°
2026-04-25 01:28 42.99988 -82.30951 591 ft 12 kts 316°
2026-04-25 01:28 43.00048 -82.31036 591 ft 12 kts 315°
2026-04-25 01:28 43.00112 -82.31119 591 ft 13 kts 316°
2026-04-25 01:28 43.00181 -82.31208 591 ft 14 kts 316°
2026-04-25 01:29 43.00256 -82.31304 591 ft 15 kts 317°
2026-04-25 01:29 43.00331 -82.31401 591 ft 14 kts 317°
2026-04-25 01:29 43.00408 -82.31490 591 ft 14 kts 326°
2026-04-25 01:29 43.00467 -82.31565 591 ft 4 kts 243°
2026-04-25 01:30 43.00453 -82.31558 591 ft 2 kts 138°
2026-04-25 01:30 43.00281 -82.31341 591 ft 68 kts 136°
2026-04-25 01:30 42.99777 -82.30695 595 ft 126 kts 138°
2026-04-25 01:30 42.99128 -82.29779 1024 ft 139 kts 134°
2026-04-25 01:31 42.98565 -82.28733 1672 ft 143 kts 115°
2026-04-25 01:31 42.98551 -82.27296 2141 ft 167 kts 70°
2026-04-25 01:31 42.99177 -82.25875 2521 ft 192 kts 60°
2026-04-25 01:31 42.99858 -82.24137 2816 ft 225 kts 74°
2026-04-25 01:32 43.00158 -82.21944 3315 ft 246 kts 84°
2026-04-25 01:32 43.00311 -82.19607 4223 ft 249 kts 86°
2026-04-25 01:32 43.00414 -82.17234 4873 ft 266 kts 87°
2026-04-25 01:32 43.00505 -82.14677 4954 ft 269 kts 87°
2026-04-25 01:33 43.00588 -82.12133 4956 ft 265 kts 88°
2026-04-25 01:33 43.00675 -82.09650 4963 ft 261 kts 87°
2026-04-25 01:33 43.00747 -82.07186 4974 ft 259 kts 88°
2026-04-25 01:33 43.00833 -82.04717 4970 ft 257 kts 87°
2026-04-25 01:34 43.00904 -82.02299 4955 ft 255 kts 88°
2026-04-25 01:34 43.00975 -81.99895 4973 ft 253 kts 89°
2026-04-25 01:34 43.01053 -81.97485 4960 ft 251 kts 89°
2026-04-25 01:34 43.01124 -81.95127 4977 ft 248 kts 88°
2026-04-25 01:35 43.01196 -81.92768 4958 ft 246 kts 89°
2026-04-25 01:35 43.01265 -81.90457 4949 ft 245 kts 88°
2026-04-25 01:35 43.01339 -81.88118 4898 ft 245 kts 89°
2026-04-25 01:35 43.01407 -81.85800 4920 ft 243 kts 88°
2026-04-25 01:36 43.01438 -81.83515 4927 ft 241 kts 91°
2026-04-25 01:36 43.01411 -81.81229 4918 ft 235 kts 90°
2026-04-25 01:36 43.01374 -81.79028 4901 ft 228 kts 91°
2026-04-25 01:36 43.01338 -81.76904 4916 ft 222 kts 91°
2026-04-25 01:37 43.01301 -81.74838 4927 ft 215 kts 92°
2026-04-25 01:37 43.01263 -81.72823 4929 ft 210 kts 92°
2026-04-25 01:37 43.01229 -81.70838 4937 ft 204 kts 92°
2026-04-25 01:37 43.01196 -81.68921 4929 ft 200 kts 92°
2026-04-25 01:38 43.01160 -81.67030 4954 ft 195 kts 92°
2026-04-25 01:38 43.01126 -81.65189 4928 ft 193 kts 93°
2026-04-25 01:38 43.01091 -81.63351 4953 ft 194 kts 93°
2026-04-25 01:38 43.01055 -81.61501 4942 ft 197 kts 92°
2026-04-25 01:39 43.01017 -81.59627 4949 ft 198 kts 93°
2026-04-25 01:39 43.00983 -81.57719 4960 ft 201 kts 92°
2026-04-25 01:39 43.00944 -81.55821 4961 ft 203 kts 92°
2026-04-25 01:39 43.00909 -81.53866 4965 ft 205 kts 92°
2026-04-25 01:40 43.00869 -81.51912 4961 ft 207 kts 92°
2026-04-25 01:40 43.00829 -81.49937 4960 ft 209 kts 92°
2026-04-25 01:40 43.00789 -81.47935 4961 ft 211 kts 92°
2026-04-25 01:40 43.00750 -81.45927 4958 ft 213 kts 92°
2026-04-25 01:41 43.00708 -81.43922 4951 ft 214 kts 92°
2026-04-25 01:41 43.00665 -81.41852 4955 ft 216 kts 92°
2026-04-25 01:41 43.00621 -81.39745 4513 ft 228 kts 92°
2026-04-25 01:41 43.00734 -81.37571 4021 ft 234 kts 78°
2026-04-25 01:42 43.01073 -81.35422 3526 ft 225 kts 81°
2026-04-25 01:42 43.01357 -81.33440 3441 ft 200 kts 81°
2026-04-25 01:42 43.01622 -81.31640 3314 ft 187 kts 82°
2026-04-25 01:42 43.01870 -81.29900 3029 ft 185 kts 81°
2026-04-25 01:43 43.02108 -81.28235 2759 ft 172 kts 82°
2026-04-25 01:43 43.02327 -81.26723 2522 ft 151 kts 82°
2026-04-25 01:43 43.02517 -81.25397 2295 ft 134 kts 82°
2026-04-25 01:43 43.02683 -81.24222 2103 ft 120 kts 82°
2026-04-25 01:44 43.02831 -81.23156 1943 ft 107 kts 82°
2026-04-25 01:44 43.02966 -81.22211 1814 ft 95 kts 82°
2026-04-25 01:44 43.03087 -81.21351 1660 ft 95 kts 83°
2026-04-25 01:44 43.03211 -81.20496 1559 ft 90 kts 81°
2026-04-25 01:45 43.03329 -81.19643 1413 ft 107 kts 81°
2026-04-25 01:45 43.03488 -81.18581 1406 ft 119 kts 80°
2026-04-25 01:45 43.03657 -81.17454 1108 ft 120 kts 81°
2026-04-25 01:45 43.03799 -81.16375 943 ft 110 kts 80°
2026-04-25 01:46 43.03932 -81.15437 916 ft 80 kts 79°
2026-04-25 01:46 43.04018 -81.14821 916 ft 60 kts 78°
2026-04-25 01:46 43.04042 -81.14474 916 ft 9 kts 184°
2026-04-25 01:46 43.03979 -81.14463 916 ft 9 kts 160°
2026-04-25 01:47 43.03946 -81.14446 916 ft 0 kts 159°
2026-04-25 01:48 43.03943 -81.14445 916 ft 2 kts 159°
2026-04-25 01:48 43.03862 -81.14414 916 ft 16 kts 190°
2026-04-25 01:48 43.03742 -81.14552 916 ft 30 kts 223°
2026-04-25 01:48 43.03590 -81.14756 916 ft 30 kts 224°
2026-04-25 01:49 43.03440 -81.14954 916 ft 29 kts 225°
2026-04-25 01:49 43.03292 -81.15151 916 ft 29 kts 223°
2026-04-25 01:49 43.03171 -81.15313 917 ft 5 kts 134°
2026-04-25 01:49 43.03178 -81.15295 916 ft 0 kts 43°